Fort Leonard Wood, MO

10:32 PM CDT on August 23, 2017 (GMT -0500)
Waynesville Regional At Forney Field

Weather History for KTBN - December, 2013

Change the Weather History Date:

Sunday, December 8, 2013

  Actual Average Record
Temperature  
Mean Temperature 20 °F -  
Max Temperature 26 °F 45 °F 64 °F (2015)
Min Temperature 15 °F 32 °F 5 °F (2006)
Degree Days  
Heating Degree Days 44    
Moisture  
Dew Point 20 °F    
Average Humidity 94    
Maximum Humidity 100    
Minimum Humidity 79    
Precipitation  
Precipitation 0.00 in - - ()
Snow  
Snow 0.00 in - - ()
Snow Depth 4.00 in    
Sea Level Pressure  
Sea Level Pressure 30.14 in    
Wind  
Wind Speed 6 mph (ESE)    
Max Wind Speed 9 mph    
Max Gust Speed -    
Visibility 8 miles    
Events Rain , Snow    
Averages and records for this station are not official NWS values.
T = Trace of Precipitation, MM = Missing Value Source: NWS Daily Summary

Daily Weather History Graph

Daily Weather History Graph

Search for Another Location

Airport or City:

Trip Planner

Search our weather history database for the weather conditions in past years. The results will help you decide how hot, cold, wet, or windy it might be!

Date:

Astronomy

Dec. 08, 2013 Rise Set
Actual Time 7:11 AM CST 4:49 PM CST
Civil Twilight 6:42 AM CST 5:18 PM CST
Nautical Twilight 6:09 AM CST 5:51 PM CST
Astronomical Twilight 5:37 AM CST 6:23 PM CST
Moon 11:37 AM CST (12/8) 11:33 PM CST (12/8)
Length of Visible Light 10h 36m
Length of Day
9h 38m
Waxing Crescent, 40% of the Moon is Illuminated
Dec 8
Waxing Crescent
Dec 9
First Quarter
Dec 17
Full
Dec 25
Last Quarter
Jan 1
New

Hourly Weather History & Observations

Time (CST) Temp. Windchill Dew Point Humidity Pressure Visibility Wind Dir Wind Speed Gust Speed Precip Events Conditions
12:58 AM 16.7 °F 6.2 °F 13.1 °F 86% 30.40 in 10.0 mi ENE 8.1 mph - N/A   Overcast
1:04 AM 15.8 °F 4.2 °F 12.2 °F 86% 30.31 in 10.0 mi ENE 9.2 mph - N/A Snow Light Snow
1:13 AM 15.8 °F 6.1 °F 12.2 °F 86% 30.30 in 10.0 mi ENE 6.9 mph - N/A   Overcast
1:58 AM 16.5 °F 6.9 °F 12.6 °F 84% 30.35 in 10.0 mi ENE 6.9 mph - 0.00 in   Overcast
2:36 AM 17.6 °F 10.7 °F 12.2 °F 79% 30.27 in 10.0 mi NE 4.6 mph - N/A Snow Light Snow
2:46 AM 17.6 °F 9.3 °F 12.2 °F 79% 30.26 in 10.0 mi ENE 5.8 mph - N/A   Overcast
2:58 AM 16.9 °F 8.5 °F 12.7 °F 84% 30.32 in 10.0 mi ENE 5.8 mph - 0.00 in   Overcast
3:08 AM 17.6 °F 8.2 °F 12.2 °F 79% 30.25 in 10.0 mi NE 6.9 mph - N/A Snow Light Snow
3:24 AM 17.6 °F 8.2 °F 12.2 °F 79% 30.24 in 10.0 mi NE 6.9 mph - N/A   Overcast
3:58 AM 17.2 °F 6.8 °F 13.3 °F 84% 30.30 in 10.0 mi NE 8.1 mph - 0.00 in   Overcast
4:20 AM 17.6 °F 7.3 °F 14.0 °F 86% 30.21 in 10.0 mi ENE 8.1 mph - N/A Snow Light Snow
4:40 AM 17.6 °F 8.2 °F 14.0 °F 86% 30.20 in 10.0 mi NE 6.9 mph - N/A   Mostly Cloudy
4:58 AM 17.4 °F 7.1 °F 13.5 °F 84% 30.25 in 10.0 mi ENE 8.1 mph - 0.00 in   Overcast
5:28 AM 17.6 °F 7.3 °F 14.0 °F 86% 30.19 in 10.0 mi ENE 8.1 mph - N/A   Overcast
5:43 AM 17.6 °F 7.3 °F 14.0 °F 86% 30.17 in 10.0 mi East 8.1 mph - N/A   Overcast
5:58 AM 17.6 °F 8.2 °F 13.8 °F 85% 30.25 in 10.0 mi East 6.9 mph - N/A   Overcast
6:22 AM 17.6 °F 7.3 °F 14.0 °F 86% 30.17 in 10.0 mi East 8.1 mph - N/A Snow Light Snow
6:47 AM 17.6 °F 9.3 °F 14.0 °F 86% 30.16 in 9.0 mi East 5.8 mph - N/A   Overcast
6:58 AM 17.6 °F 8.2 °F 14.9 °F 89% 30.23 in 10.0 mi East 6.9 mph - 0.00 in   Overcast
7:03 AM 17.6 °F 9.3 °F 15.8 °F 93% 30.17 in 9.0 mi East 5.8 mph - N/A   Overcast
7:28 AM 17.6 °F 9.3 °F 15.8 °F 93% 30.16 in 9.0 mi East 5.8 mph - N/A   Overcast
7:42 AM 17.6 °F 10.7 °F 15.8 °F 93% 30.16 in 6.0 mi East 4.6 mph - N/A Snow Light Snow
7:55 AM 17.6 °F 9.3 °F 15.8 °F 93% 30.15 in 8.0 mi East 5.8 mph - N/A   Overcast
7:58 AM 18.0 °F 9.8 °F 16.0 °F 92% 30.22 in 8.0 mi East 5.8 mph - 0.00 in   Overcast
8:18 AM 17.6 °F 12.3 °F 15.8 °F 93% 30.14 in 10.0 mi ESE 3.5 mph - N/A   Overcast
8:28 AM 17.6 °F 10.7 °F 15.8 °F 93% 30.15 in 10.0 mi East 4.6 mph - N/A   Overcast
8:38 AM 17.6 °F 10.7 °F 15.8 °F 93% 30.15 in 6.0 mi East 4.6 mph - N/A   Overcast
8:53 AM 19.4 °F 11.5 °F 17.6 °F 93% 30.14 in 5.0 mi ESE 5.8 mph - N/A   Overcast
8:58 AM 18.9 °F 10.8 °F 17.1 °F 93% 30.22 in 6.0 mi ESE 5.8 mph - N/A   Overcast
9:33 AM 19.4 °F 12.8 °F 17.6 °F 93% 30.14 in 5.0 mi ESE 4.6 mph - N/A   Overcast
9:42 AM 19.4 °F 11.5 °F 19.4 °F 100% 30.14 in 3.0 mi SE 5.8 mph - N/A   Light Freezing Drizzle
9:47 AM 19.4 °F 12.8 °F 19.4 °F 100% 30.14 in 2.5 mi ESE 4.6 mph - N/A   Light Freezing Drizzle
9:58 AM 20.1 °F 12.3 °F 19.6 °F 98% 30.19 in 2.5 mi SE 5.8 mph - 0.00 in   Light Freezing Drizzle
10:13 AM 21.2 °F 13.6 °F 19.4 °F 93% 30.13 in 3.0 mi SE 5.8 mph - N/A   Light Freezing Drizzle
10:23 AM 21.2 °F 14.9 °F 21.2 °F 100% 30.12 in 2.5 mi SE 4.6 mph - N/A   Light Freezing Drizzle
10:58 AM 21.2 °F 13.6 °F 21.0 °F 99% 30.16 in 2.5 mi SE 5.8 mph - 0.00 in   Light Freezing Drizzle
11:03 AM 21.2 °F 13.6 °F 21.2 °F 100% 30.10 in 3.0 mi SSE 5.8 mph - N/A   Light Freezing Drizzle
11:19 AM 21.2 °F 14.9 °F 21.2 °F 100% 30.11 in 7.0 mi SSW 4.6 mph - N/A   Overcast
11:31 AM 23.0 °F 15.8 °F 21.2 °F 93% 30.11 in 6.0 mi SSW 5.8 mph - N/A   Overcast
11:38 AM 23.0 °F 17.0 °F 23.0 °F 100% 30.09 in 4.0 mi Variable 4.6 mph - N/A Rain Light Freezing Rain
11:58 AM 23.2 °F 17.2 °F 22.8 °F 99% 30.13 in 5.0 mi Variable 4.6 mph - 0.00 in   Light Freezing Drizzle
12:14 PM 23.0 °F 18.4 °F 23.0 °F 100% 30.05 in 10.0 mi Variable 3.5 mph - N/A   Overcast
12:44 PM 23.0 °F 15.8 °F 23.0 °F 100% 30.01 in 10.0 mi South 5.8 mph - N/A   Overcast
12:58 PM 24.1 °F 17.0 °F 23.4 °F 97% 30.06 in 10.0 mi SSE 5.8 mph - 0.00 in   Overcast
1:58 PM 24.6 °F 18.8 °F 23.4 °F 95% 30.05 in 10.0 mi Variable 4.6 mph - N/A   Overcast
2:58 PM 25.0 °F 20.7 °F 24.6 °F 99% 30.06 in 6.0 mi SSW 3.5 mph - N/A   Overcast
3:03 PM 24.8 °F 19.1 °F 24.8 °F 100% 29.99 in 8.0 mi South 4.6 mph - N/A   Overcast
3:23 PM 24.8 °F 20.5 °F 24.8 °F 100% 29.99 in 10.0 mi Variable 3.5 mph - N/A   Overcast
3:38 PM 24.8 °F 19.1 °F 24.8 °F 100% 30.00 in 9.0 mi SSW 4.6 mph - N/A   Overcast
3:58 PM 25.2 °F 20.9 °F 25.0 °F 99% 30.06 in 10.0 mi SW 3.5 mph - N/A   Overcast
4:33 PM 24.8 °F 17.9 °F 24.8 °F 100% 29.99 in 10.0 mi Variable 5.8 mph - N/A   Overcast
4:58 PM 25.2 °F 20.9 °F 24.8 °F 99% 30.06 in 10.0 mi SSW 3.5 mph - N/A   Overcast
5:58 PM 25.0 °F - 24.8 °F 99% 30.07 in 10.0 mi SSW 2.3 mph - N/A   Overcast
6:03 PM 24.8 °F 20.5 °F 24.8 °F 100% 30.01 in 10.0 mi Variable 3.5 mph - N/A   Overcast
6:58 PM 25.2 °F 19.5 °F 24.6 °F 98% 30.10 in 10.0 mi Variable 4.6 mph - N/A   Overcast
7:13 PM 24.8 °F 19.1 °F 24.8 °F 100% 30.04 in 10.0 mi SW 4.6 mph - N/A   Overcast
7:23 PM 24.8 °F 17.9 °F 24.8 °F 100% 30.04 in 10.0 mi SW 5.8 mph - N/A   Overcast
7:28 PM 24.8 °F 19.1 °F 24.8 °F 100% 30.05 in 10.0 mi WSW 4.6 mph - N/A   Overcast
7:58 PM 25.0 °F 19.3 °F 24.8 °F 99% 30.12 in 10.0 mi SW 4.6 mph - N/A   Overcast
8:08 PM 24.8 °F 17.9 °F 24.8 °F 100% 30.06 in 10.0 mi SW 5.8 mph - N/A   Overcast
8:28 PM 24.8 °F 19.1 °F 24.8 °F 100% 30.06 in 9.0 mi Variable 4.6 mph - N/A   Overcast
8:38 PM 24.8 °F 20.5 °F 24.8 °F 100% 30.06 in 7.0 mi Variable 3.5 mph - N/A   Overcast
8:43 PM 24.8 °F 19.1 °F 24.8 °F 100% 30.06 in 8.0 mi Variable 4.6 mph - N/A   Overcast
8:58 PM 25.2 °F 20.9 °F 25.0 °F 99% 30.12 in 7.0 mi WSW 3.5 mph - N/A   Overcast
9:58 PM 25.3 °F 21.1 °F 25.2 °F 99% 30.13 in 10.0 mi Variable 3.5 mph - N/A   Overcast
10:43 PM 24.8 °F 20.5 °F 24.8 °F 100% 30.08 in 10.0 mi SW 3.5 mph - N/A   Overcast
10:58 PM 25.7 °F 20.1 °F 25.5 °F 99% 30.15 in 10.0 mi Variable 4.6 mph - N/A   Overcast
11:38 PM 26.6 °F 22.6 °F 26.6 °F 100% 30.09 in 9.0 mi SW 3.5 mph - N/A   Overcast
11:48 PM 26.6 °F 21.2 °F 26.6 °F 100% 30.09 in 8.0 mi Variable 4.6 mph - N/A   Overcast
11:53 PM 26.6 °F 21.2 °F 26.6 °F 100% 30.09 in 9.0 mi Variable 4.6 mph - N/A   Overcast
11:58 PM 26.2 °F - 26.1 °F 99% 30.15 in 8.0 mi WSW 2.3 mph - N/A   Overcast